KLM59E EHAM-LSZH

Flight info

Callsign KLM59E
Flight time 0h 57m
Altitude 35000
Route EDUPO Z739 MISGO DCT ASBON DCT TUSUK DCT LAMGO T721 RILAX
Aircraft A21N/M-SDE2E3FGHIRWXY/LB1

Departure

Time 2026-05-06 21:25
Airport Amsterdam Airport Schiphol (EHAM)

Arrival

Time 2026-05-06 22:22
Airport Zürich Airport (LSZH)
Time Latitude Longitude Altitude Speed Heading
2026-05-06 21:03 52.30458 4.76714 4 ft 0 kts 334°
2026-05-06 21:16 52.30454 4.76717 4 ft 3 kts 334°
2026-05-06 21:16 52.30431 4.76739 4 ft 4 kts 321°
2026-05-06 21:16 52.30413 4.76770 4 ft 4 kts 298°
2026-05-06 21:17 52.30408 4.76807 4 ft 4 kts 253°
2026-05-06 21:17 52.30411 4.76821 4 ft 0 kts 238°
2026-05-06 21:19 52.30405 4.76807 4 ft 6 kts 238°
2026-05-06 21:19 52.30355 4.76677 4 ft 19 kts 238°
2026-05-06 21:19 52.30282 4.76487 4 ft 20 kts 237°
2026-05-06 21:20 52.30204 4.76286 4 ft 22 kts 240°
2026-05-06 21:20 52.30122 4.76073 4 ft 23 kts 237°
2026-05-06 21:20 52.30036 4.75847 4 ft 24 kts 238°
2026-05-06 21:20 52.29947 4.75613 4 ft 23 kts 237°
2026-05-06 21:21 52.29864 4.75396 4 ft 20 kts 238°
2026-05-06 21:21 52.29848 4.75179 4 ft 22 kts 315°
2026-05-06 21:21 52.29953 4.74988 4 ft 23 kts 309°
2026-05-06 21:21 52.30065 4.74783 6 ft 25 kts 311°
2026-05-06 21:22 52.30183 4.74564 15 ft 26 kts 311°
2026-05-06 21:22 52.30296 4.74354 13 ft 21 kts 311°
2026-05-06 21:22 52.30385 4.74187 4 ft 19 kts 311°
2026-05-06 21:22 52.30418 4.74006 4 ft 16 kts 244°
2026-05-06 21:23 52.30410 4.73835 3 ft 16 kts 275°
2026-05-06 21:23 52.30480 4.73761 3 ft 11 kts
2026-05-06 21:23 52.30512 4.73765 3 ft 0 kts
2026-05-06 21:23 52.30515 4.73765 2 ft 4 kts
2026-05-06 21:24 52.30568 4.73770 2 ft 6 kts 359°
2026-05-06 21:24 52.30576 4.73769 2 ft 0 kts 358°
2026-05-06 21:24 52.30604 4.73769 2 ft 16 kts 360°
2026-05-06 21:25 52.31031 4.73817 5 ft 105 kts
2026-05-06 21:25 52.32018 4.73900 30 ft 172 kts
2026-05-06 21:25 52.33221 4.74006 840 ft 173 kts
2026-05-06 21:25 52.34397 4.74469 1604 ft 180 kts 27°
2026-05-06 21:26 52.35571 4.75380 2147 ft 194 kts 26°
2026-05-06 21:26 52.36820 4.76415 2604 ft 212 kts 39°
2026-05-06 21:26 52.37750 4.78398 2971 ft 232 kts 69°
2026-05-06 21:26 52.37879 4.81097 3556 ft 249 kts 101°
2026-05-06 21:27 52.37679 4.82097 3829 ft 253 kts 112°
2026-05-06 21:27 52.36761 4.84597 4620 ft 259 kts 121°
2026-05-06 21:27 52.35741 4.87042 5426 ft 262 kts 121°
2026-05-06 21:27 52.34722 4.89543 6222 ft 265 kts 120°
2026-05-06 21:28 52.33711 4.92083 6982 ft 269 kts 120°
2026-05-06 21:28 52.32688 4.94677 7718 ft 274 kts 122°
2026-05-06 21:28 52.31648 4.97324 8448 ft 280 kts 121°
2026-05-06 21:28 52.30588 5.00026 9209 ft 285 kts 122°
2026-05-06 21:29 52.29514 5.02780 9970 ft 290 kts 122°
2026-05-06 21:29 52.28394 5.05639 10384 ft 308 kts 122°
2026-05-06 21:29 52.27196 5.08678 10677 ft 328 kts 122°
2026-05-06 21:29 52.25930 5.11908 10948 ft 348 kts 122°
2026-05-06 21:30 52.24592 5.15321 11216 ft 366 kts 122°
2026-05-06 21:30 52.23198 5.18876 11711 ft 375 kts 122°
2026-05-06 21:30 52.21806 5.22427 12340 ft 379 kts 122°
2026-05-06 21:30 52.21249 5.23849 12592 ft 381 kts 123°
2026-05-06 21:31 52.20180 5.26591 13077 ft 384 kts 122°
2026-05-06 21:31 52.18737 5.30282 13687 ft 389 kts 123°
2026-05-06 21:31 52.17273 5.34017 14232 ft 392 kts 123°
2026-05-06 21:32 52.15792 5.37769 14782 ft 395 kts 123°
2026-05-06 21:32 52.12794 5.45319 15888 ft 399 kts 123°
2026-05-06 21:32 52.11287 5.49125 16406 ft 402 kts 123°
2026-05-06 21:33 52.10280 5.51665 16736 ft 404 kts 123°
2026-05-06 21:33 52.08753 5.55522 17233 ft 407 kts 123°
2026-05-06 21:33 52.07213 5.59400 17720 ft 410 kts 123°
2026-05-06 21:33 52.05656 5.63307 18208 ft 413 kts 123°
2026-05-06 21:34 52.04092 5.67236 18628 ft 415 kts 124°
2026-05-06 21:34 52.02518 5.71182 19015 ft 418 kts 124°
2026-05-06 21:34 52.00927 5.75154 19405 ft 420 kts 124°
2026-05-06 21:34 51.99327 5.79142 19811 ft 423 kts 124°
2026-05-06 21:35 51.97696 5.83119 20217 ft 425 kts 127°
2026-05-06 21:35 51.95828 5.86845 20612 ft 426 kts 132°
2026-05-06 21:35 51.93877 5.90478 21007 ft 428 kts 132°
2026-05-06 21:35 51.91910 5.94122 21406 ft 431 kts 132°
2026-05-06 21:36 51.89937 5.97787 21798 ft 433 kts 132°
2026-05-06 21:36 51.87951 6.01472 22186 ft 435 kts 132°
2026-05-06 21:36 51.85957 6.05165 22604 ft 437 kts 132°
2026-05-06 21:36 51.83946 6.08878 23001 ft 440 kts 133°
2026-05-06 21:37 51.81917 6.12588 23404 ft 442 kts 133°
2026-05-06 21:37 51.79874 6.16322 23759 ft 444 kts 133°
2026-05-06 21:37 51.77823 6.20066 24128 ft 446 kts 133°
2026-05-06 21:37 51.75760 6.23826 24487 ft 448 kts 133°
2026-05-06 21:38 51.73685 6.27596 24851 ft 450 kts 133°
2026-05-06 21:38 51.71608 6.31377 25205 ft 451 kts 133°
2026-05-06 21:38 51.69528 6.35179 25570 ft 453 kts 133°
2026-05-06 21:38 51.67439 6.38974 25927 ft 454 kts 133°
2026-05-06 21:39 51.65339 6.42779 26266 ft 455 kts 133°
2026-05-06 21:39 51.63224 6.46602 26585 ft 457 kts 133°
2026-05-06 21:39 51.61106 6.50426 26909 ft 458 kts 133°
2026-05-06 21:39 51.58985 6.54260 27222 ft 459 kts 133°
2026-05-06 21:40 51.56866 6.58089 27570 ft 459 kts 133°
2026-05-06 21:40 51.54748 6.61918 27956 ft 458 kts 133°
2026-05-06 21:40 51.52632 6.65731 28343 ft 456 kts 133°
2026-05-06 21:40 51.50519 6.69529 28717 ft 455 kts 133°
2026-05-06 21:41 51.48414 6.73316 29103 ft 454 kts 134°
2026-05-06 21:41 51.46310 6.77082 29491 ft 453 kts 133°
2026-05-06 21:41 51.44208 6.80835 29852 ft 452 kts 133°
2026-05-06 21:41 51.42111 6.84571 30177 ft 451 kts 134°
2026-05-06 21:42 51.39879 6.87984 30442 ft 448 kts 143°
2026-05-06 21:42 51.37322 6.90815 30718 ft 447 kts 149°
2026-05-06 21:42 51.34693 6.93444 31031 ft 445 kts 149°
2026-05-06 21:42 51.32065 6.96045 31378 ft 444 kts 149°
2026-05-06 21:43 51.29448 6.98650 31674 ft 443 kts 149°
2026-05-06 21:43 51.26831 7.01269 31945 ft 443 kts 149°
2026-05-06 21:43 51.24222 7.03885 32213 ft 443 kts 149°
2026-05-06 21:43 51.21612 7.06500 32479 ft 443 kts 149°
2026-05-06 21:44 51.19005 7.09106 32730 ft 443 kts 149°
2026-05-06 21:44 51.16395 7.11707 32976 ft 442 kts 149°
2026-05-06 21:44 51.13785 7.14309 33208 ft 442 kts 149°
2026-05-06 21:44 51.11180 7.16899 33476 ft 441 kts 149°
2026-05-06 21:45 51.08584 7.19485 33731 ft 440 kts 149°
2026-05-06 21:45 51.05991 7.22067 33948 ft 440 kts 149°
2026-05-06 21:45 51.03392 7.24644 34113 ft 440 kts 149°
2026-05-06 21:45 51.00796 7.27212 34271 ft 440 kts 149°
2026-05-06 21:46 50.98197 7.29785 34422 ft 440 kts 149°
2026-05-06 21:46 50.95594 7.32361 34567 ft 441 kts 149°
2026-05-06 21:46 50.92995 7.34938 34702 ft 441 kts 149°
2026-05-06 21:46 50.90397 7.37512 34850 ft 441 kts 149°
2026-05-06 21:47 50.85177 7.42651 34942 ft 441 kts 150°
2026-05-06 21:47 50.79963 7.47766 34921 ft 441 kts 150°
2026-05-06 21:48 50.74750 7.52872 34889 ft 440 kts 150°
2026-05-06 21:48 50.69600 7.58063 34875 ft 439 kts 149°
2026-05-06 21:49 50.64527 7.63327 34874 ft 440 kts 148°
2026-05-06 21:49 50.59421 7.68600 34880 ft 439 kts 148°
2026-05-06 21:50 50.54315 7.73868 34875 ft 439 kts 148°
2026-05-06 21:50 50.49207 7.79128 34878 ft 439 kts 149°
2026-05-06 21:51 50.44092 7.84372 34875 ft 439 kts 148°
2026-05-06 21:51 50.38981 7.89595 34869 ft 438 kts 149°
2026-05-06 21:52 50.33870 7.94801 34870 ft 439 kts 149°
2026-05-06 21:52 50.28759 8.00014 34864 ft 438 kts 149°
2026-05-06 21:53 50.23637 8.05201 34864 ft 439 kts 149°
2026-05-06 21:53 50.18519 8.10389 34866 ft 439 kts 149°
2026-05-06 21:54 50.13322 8.15350 34862 ft 437 kts 156°
2026-05-06 21:54 50.07596 8.18549 34871 ft 436 kts 163°
2026-05-06 21:55 50.01815 8.21433 34870 ft 437 kts 163°
2026-05-06 21:55 49.96067 8.24355 34865 ft 431 kts 163°
2026-05-06 21:56 49.90395 8.27227 34857 ft 432 kts 163°
2026-05-06 21:56 49.84664 8.30093 34857 ft 433 kts 167°
2026-05-06 21:57 49.78735 8.31644 34859 ft 432 kts 173°
2026-05-06 21:57 49.72785 8.32991 34866 ft 432 kts 172°
2026-05-06 21:58 49.66843 8.34401 34870 ft 432 kts 172°
2026-05-06 21:58 49.60894 8.35828 34872 ft 433 kts 172°
2026-05-06 21:59 49.54936 8.37254 34869 ft 433 kts 172°
2026-05-06 21:59 49.48976 8.38675 34867 ft 433 kts 172°
2026-05-06 22:00 49.43015 8.40095 34869 ft 435 kts 172°
2026-05-06 22:00 49.37028 8.41522 34868 ft 436 kts 173°
2026-05-06 22:01 49.31039 8.42936 34866 ft 435 kts 173°
2026-05-06 22:01 49.25047 8.44350 34873 ft 435 kts 173°
2026-05-06 22:02 49.19061 8.45760 34873 ft 436 kts 173°
2026-05-06 22:02 49.13072 8.47164 34860 ft 432 kts 173°
2026-05-06 22:03 49.10110 8.47856 34167 ft 433 kts 173°
2026-05-06 22:03 49.07108 8.48556 33116 ft 439 kts 172°
2026-05-06 22:03 49.04087 8.49263 32298 ft 439 kts 172°
2026-05-06 22:03 49.01079 8.49967 31611 ft 438 kts 172°
2026-05-06 22:04 48.98068 8.50668 30940 ft 437 kts 172°
2026-05-06 22:04 48.95057 8.51367 30276 ft 437 kts 171°
2026-05-06 22:04 48.92055 8.52064 29516 ft 438 kts 171°
2026-05-06 22:04 48.89042 8.52770 28689 ft 439 kts 171°
2026-05-06 22:05 48.86002 8.53480 28014 ft 441 kts 171°
2026-05-06 22:05 48.82971 8.54175 27406 ft 440 kts 171°
2026-05-06 22:05 48.79955 8.54872 26744 ft 437 kts 171°
2026-05-06 22:05 48.76957 8.55562 26082 ft 435 kts 171°
2026-05-06 22:06 48.73976 8.56251 25449 ft 432 kts 171°
2026-05-06 22:06 48.71015 8.56934 24833 ft 429 kts 171°
2026-05-06 22:06 48.68104 8.57599 24205 ft 427 kts 171°
2026-05-06 22:06 48.65170 8.58272 23576 ft 426 kts 171°
2026-05-06 22:07 48.62252 8.58946 22863 ft 424 kts 172°
2026-05-06 22:07 48.59347 8.59616 22192 ft 421 kts 172°
2026-05-06 22:07 48.56465 8.60277 21525 ft 418 kts 172°
2026-05-06 22:07 48.53597 8.60932 20875 ft 415 kts 172°
2026-05-06 22:08 48.50762 8.61581 20259 ft 410 kts 173°
2026-05-06 22:08 48.47954 8.62222 19661 ft 406 kts 173°
2026-05-06 22:08 48.45172 8.62861 19096 ft 402 kts 173°
2026-05-06 22:08 48.42422 8.63495 18551 ft 398 kts 173°
2026-05-06 22:09 48.39698 8.64105 17973 ft 394 kts 175°
2026-05-06 22:09 48.36984 8.64135 17382 ft 387 kts 188°
2026-05-06 22:09 48.34346 8.63431 16824 ft 383 kts 193°
2026-05-06 22:09 48.31754 8.62607 16264 ft 380 kts 193°
2026-05-06 22:10 48.29169 8.61788 15731 ft 379 kts 193°
2026-05-06 22:10 48.26596 8.60993 15232 ft 377 kts 193°
2026-05-06 22:10 48.24027 8.60212 14737 ft 376 kts 193°
2026-05-06 22:10 48.21462 8.59437 14209 ft 376 kts 193°
2026-05-06 22:11 48.18901 8.58669 13695 ft 375 kts 193°
2026-05-06 22:11 48.16359 8.57906 13147 ft 369 kts 193°
2026-05-06 22:11 48.16289 8.57885 13132 ft 369 kts 193°
2026-05-06 22:11 48.15032 8.57506 12875 ft 365 kts 193°
2026-05-06 22:12 48.12596 8.56776 12383 ft 358 kts 193°
2026-05-06 22:12 48.10145 8.56025 11868 ft 351 kts 196°
2026-05-06 22:12 48.07861 8.54857 11381 ft 344 kts 203°
2026-05-06 22:12 48.05667 8.53549 11083 ft 333 kts 203°
2026-05-06 22:13 48.03552 8.52297 10890 ft 321 kts 203°
2026-05-06 22:13 48.01500 8.51099 10630 ft 313 kts 203°
2026-05-06 22:13 47.99495 8.49934 10331 ft 306 kts 204°
2026-05-06 22:13 47.97547 8.48812 9966 ft 302 kts 204°
2026-05-06 22:14 47.95598 8.47689 9516 ft 300 kts 204°
2026-05-06 22:14 47.93634 8.46558 9032 ft 298 kts 204°
2026-05-06 22:14 47.91800 8.45271 8580 ft 294 kts 212°
2026-05-06 22:14 47.90043 8.43747 8154 ft 290 kts 213°
2026-05-06 22:15 47.88322 8.42231 7772 ft 286 kts 213°
2026-05-06 22:15 47.86620 8.40745 7361 ft 282 kts 213°
2026-05-06 22:15 47.84903 8.39362 6938 ft 281 kts 205°
2026-05-06 22:15 47.82998 8.38641 6523 ft 283 kts 194°
2026-05-06 22:16 47.81058 8.38170 6067 ft 283 kts 193°
2026-05-06 22:16 47.79118 8.37706 5619 ft 281 kts 194°
2026-05-06 22:16 47.77202 8.37235 5259 ft 276 kts 194°
2026-05-06 22:16 47.75349 8.36770 5081 ft 265 kts 194°
2026-05-06 22:17 47.73571 8.36320 4950 ft 254 kts 195°
2026-05-06 22:17 47.71845 8.35875 4646 ft 251 kts 194°
2026-05-06 22:17 47.70128 8.35432 4346 ft 252 kts 194°
2026-05-06 22:17 47.68433 8.35001 4251 ft 241 kts 194°
2026-05-06 22:18 47.66829 8.34604 4245 ft 230 kts 194°
2026-05-06 22:18 47.65257 8.34208 4259 ft 228 kts 194°
2026-05-06 22:18 47.63675 8.33923 4262 ft 232 kts 183°
2026-05-06 22:18 47.62100 8.34560 4271 ft 243 kts 155°
2026-05-06 22:19 47.60731 8.36071 4281 ft 248 kts 141°
2026-05-06 22:19 47.59514 8.37888 4288 ft 249 kts 137°
2026-05-06 22:19 47.58323 8.39730 4176 ft 245 kts 139°
2026-05-06 22:19 47.57109 8.41458 3879 ft 240 kts 142°
2026-05-06 22:20 47.55895 8.43120 3549 ft 235 kts 141°
2026-05-06 22:20 47.54742 8.44699 3294 ft 214 kts 141°
2026-05-06 22:20 47.53700 8.46127 3015 ft 193 kts 142°
2026-05-06 22:20 47.52753 8.47419 2755 ft 179 kts 141°
2026-05-06 22:21 47.51866 8.48632 2475 ft 168 kts 141°
2026-05-06 22:21 47.51311 8.49383 2303 ft 159 kts 140°
2026-05-06 22:21 47.50245 8.50836 1989 ft 155 kts 137°
2026-05-06 22:21 47.49461 8.51892 1791 ft 154 kts 137°
2026-05-06 22:22 47.48678 8.52970 1584 ft 154 kts 136°
2026-05-06 22:22 47.47893 8.54039 1419 ft 146 kts 136°
2026-05-06 22:22 47.47227 8.54947 1398 ft 115 kts 137°
2026-05-06 22:22 47.46803 8.55527 1408 ft 36 kts 133°